Weather History for KO22 - April, 2014

Change the Weather History Date:

Sunday, April 20, 2014

  Actual Average (KMOD) Record (KMOD)
Temperature  
Mean Temperature 57 °F -  
Max Temperature 75 °F 76 °F 97 °F (2009)
Min Temperature 39 °F 50 °F 35 °F (1967)
Degree Days  
Heating Degree Days 8 4  
Month to date heating degree days 101  
Since 1 July heating degree days 2106  
Cooling Degree Days 0 2  
Month to date cooling degree days 17  
Year to date cooling degree days 22  
Growing Degree Days 7 (Base 50)    
Moisture  
Dew Point 38 °F    
Average Humidity 53    
Maximum Humidity 82    
Minimum Humidity 22    
Precipitation  
Precipitation 0.00 in 0.03 in 0.80 in (2010)
Month to date precipitation 0.70  
Year to date precipitation 7.73  
Snow  
Snow 0.00 in - - ()
Month to date snowfall  
Since 1 July snowfall  
Snow Depth -    
Sea Level Pressure  
Sea Level Pressure 30.10 in    
Wind  
Wind Speed 2 mph (WSW)    
Max Wind Speed 9 mph    
Max Gust Speed -    
Visibility 10 miles    
Events      
T = Trace of Precipitation, MM = Missing Value Source: NWS Daily Summary

Daily Weather History Graph

Daily Weather History Graph

Search for Another Location

Airport or City:

Trip Planner

Search our weather history database for the weather conditions in past years. The results will help you decide how hot, cold, wet, or windy it might be!

Date:

Astronomy

Apr. 20, 2014 Rise Set
Actual Time 6:19 AM PDT 7:42 PM PDT
Civil Twilight 5:51 AM PDT 8:10 PM PDT
Nautical Twilight 5:18 AM PDT 8:43 PM PDT
Astronomical Twilight 4:44 AM PDT 9:17 PM PDT
Moon 12:24 AM PDT (4/20) 10:47 AM PDT (4/20)
Length of Visible Light 14h 18m
Length of Day
13h 23m
Waning Gibbous, 67% of the Moon is Illuminated
Apr 20
Waning Gibbous
Apr 22
Last Quarter
Apr 28
New
May 6
First Quarter
May 14
Full

Hourly Weather History & Observations

Time (PDT) Temp. Windchill Dew Point Humidity Pressure Visibility Wind Dir Wind Speed Gust Speed Precip Events Conditions
12:15 AM 44.6 °F 43.1 °F 35.6 °F 71% 30.10 in 10.0 mi NE 3.5 mph - N/A   Clear
12:35 AM 44.6 °F - 35.6 °F 71% 30.10 in 10.0 mi Calm Calm - N/A   Clear
12:55 AM 42.8 °F - 35.6 °F 76% 30.10 in 10.0 mi Calm Calm - N/A   Clear
1:15 AM 42.8 °F - 35.6 °F 76% 30.10 in 10.0 mi Calm Calm - N/A   Clear
1:35 AM 41.0 °F - 35.6 °F 81% 30.10 in 10.0 mi Calm Calm - N/A   Clear
1:55 AM 41.0 °F - 35.6 °F 81% 30.10 in 10.0 mi Calm Calm - N/A   Partly Cloudy
2:15 AM 41.0 °F - 33.8 °F 76% 30.10 in 10.0 mi Calm Calm - N/A   Mostly Cloudy
2:35 AM 41.0 °F - 33.8 °F 76% 30.09 in 10.0 mi Calm Calm - N/A   Partly Cloudy
2:55 AM 41.0 °F - 33.8 °F 76% 30.09 in 10.0 mi Calm Calm - N/A   Clear
3:15 AM 41.0 °F - 32.0 °F 70% 30.09 in 10.0 mi Calm Calm - N/A   Clear
3:35 AM 41.0 °F 39.0 °F 32.0 °F 70% 30.09 in 10.0 mi NE 3.5 mph - N/A   Clear
3:55 AM 41.0 °F - 32.0 °F 70% 30.09 in 10.0 mi Calm Calm - N/A   Clear
4:15 AM 41.0 °F - 32.0 °F 70% 30.09 in 10.0 mi Calm Calm - N/A   Clear
4:35 AM 41.0 °F 38.0 °F 32.0 °F 70% 30.09 in 10.0 mi NE 4.6 mph - N/A   Clear
4:55 AM 41.0 °F - 32.0 °F 70% 30.09 in 10.0 mi Calm Calm - N/A   Clear
5:15 AM 39.2 °F - 32.0 °F 75% 30.09 in 10.0 mi Calm Calm - N/A   Clear
5:35 AM 39.2 °F - 32.0 °F 75% 30.09 in 10.0 mi Calm Calm - N/A   Clear
5:55 AM 39.2 °F - 32.0 °F 75% 30.09 in 10.0 mi Calm Calm - N/A   Clear
6:15 AM 39.2 °F 37.0 °F 32.0 °F 75% 30.09 in 10.0 mi NE 3.5 mph - N/A   Clear
6:35 AM 41.0 °F - 33.8 °F 76% 30.10 in 10.0 mi Calm Calm - N/A   Clear
6:55 AM 42.8 °F - 35.6 °F 76% 30.11 in 10.0 mi Calm Calm - N/A   Clear
7:15 AM 44.6 °F - 37.4 °F 76% 30.11 in 10.0 mi Calm Calm - N/A   Clear
7:35 AM 50.0 °F - 39.2 °F 66% 30.11 in 10.0 mi Calm Calm - N/A   Clear
7:55 AM 55.4 °F - 39.2 °F 54% 30.11 in 10.0 mi Calm Calm - N/A   Clear
8:15 AM 57.2 °F - 39.2 °F 51% 30.11 in 10.0 mi Calm Calm - N/A   Clear
8:55 AM 64.4 °F - 32.0 °F 30% 30.11 in 10.0 mi Calm Calm - N/A   Clear
9:15 AM 66.2 °F - 35.6 °F 32% 30.11 in 10.0 mi Calm Calm - N/A   Clear
9:35 AM 68.0 °F - 37.4 °F 33% 30.12 in 10.0 mi Calm Calm - N/A   Clear
9:55 AM 68.0 °F - 41.0 °F 37% 30.12 in 10.0 mi SSE 3.5 mph - N/A   Clear
10:15 AM 69.8 °F - 39.2 °F 33% 30.13 in 10.0 mi SSW 4.6 mph - N/A   Clear
10:35 AM 68.0 °F - 39.2 °F 35% 30.13 in 10.0 mi WSW 4.6 mph - N/A   Clear
10:55 AM 69.8 °F - 39.2 °F 33% 30.13 in 10.0 mi SW 3.5 mph - N/A   Clear
11:15 AM 71.6 °F - 37.4 °F 29% 30.13 in 10.0 mi Calm Calm - N/A   Clear
11:35 AM 71.6 °F - 35.6 °F 27% 30.12 in 10.0 mi SW 5.8 mph - N/A   Clear
11:55 AM 73.4 °F - 32.0 °F 22% 30.13 in 10.0 mi WSW 5.8 mph - N/A   Clear
12:15 PM 73.4 °F - 32.0 °F 22% 30.12 in 10.0 mi WSW 8.1 mph - N/A   Clear
12:35 PM 73.4 °F - 35.6 °F 25% 30.12 in 10.0 mi WSW 4.6 mph - N/A   Clear
12:55 PM 73.4 °F - 39.2 °F 29% 30.12 in 10.0 mi West 4.6 mph - N/A   Clear
1:15 PM 75.2 °F - 37.4 °F 25% 30.11 in 10.0 mi WSW 5.8 mph - N/A   Clear
1:35 PM 75.2 °F - 39.2 °F 27% 30.11 in 10.0 mi WSW 5.8 mph - N/A   Clear
1:55 PM 75.2 °F - 37.4 °F 25% 30.11 in 10.0 mi SSW 5.8 mph - N/A   Clear
2:15 PM 75.2 °F - 39.2 °F 27% 30.10 in 10.0 mi WSW 5.8 mph - N/A   Clear
2:35 PM 75.2 °F - 41.0 °F 29% 30.10 in 10.0 mi WSW 4.6 mph - N/A   Clear
2:55 PM 75.2 °F - 41.0 °F 29% 30.10 in 10.0 mi South 4.6 mph - N/A   Clear
3:15 PM 75.2 °F - 44.6 °F 34% 30.10 in 10.0 mi SW 6.9 mph - N/A   Clear
3:35 PM 75.2 °F - 44.6 °F 34% 30.09 in 10.0 mi WNW 4.6 mph - N/A   Clear
3:55 PM 75.2 °F - 46.4 °F 36% 30.09 in 10.0 mi West 5.8 mph - N/A   Clear
4:15 PM 75.2 °F - 46.4 °F 36% 30.09 in 10.0 mi WSW 9.2 mph - N/A   Clear
4:35 PM 73.4 °F - 42.8 °F 33% 30.09 in 10.0 mi West 8.1 mph - N/A   Clear
4:55 PM 73.4 °F - 41.0 °F 31% 30.09 in 10.0 mi WSW 6.9 mph - N/A   Clear
5:15 PM 73.4 °F - 41.0 °F 31% 30.09 in 10.0 mi West 5.8 mph - N/A   Clear
5:35 PM 71.6 °F - 39.2 °F 31% 30.09 in 10.0 mi NW 6.9 mph - N/A   Clear
5:55 PM 71.6 °F - 37.4 °F 29% 30.09 in 10.0 mi WSW 5.8 mph - N/A   Clear
6:15 PM 69.8 °F - 39.2 °F 33% 30.09 in 10.0 mi SW 3.5 mph - N/A   Clear
6:35 PM 68.0 °F - 41.0 °F 37% 30.08 in 10.0 mi SW 3.5 mph - N/A   Clear
6:55 PM 66.2 °F - 41.0 °F 40% 30.08 in 10.0 mi WSW 3.5 mph - N/A   Clear
7:15 PM 64.4 °F - 41.0 °F 42% 30.08 in 10.0 mi Calm Calm - N/A   Clear
7:35 PM 60.8 °F - 41.0 °F 48% 30.09 in 10.0 mi Calm Calm - N/A   Clear
7:55 PM 59.0 °F - 42.8 °F 55% 30.09 in 10.0 mi Calm Calm - N/A   Clear
8:15 PM 59.0 °F - 44.6 °F 59% 30.09 in 10.0 mi NE 3.5 mph - N/A   Clear
8:35 PM 57.2 °F - 42.8 °F 59% 30.09 in 10.0 mi NE 3.5 mph - N/A   Clear
8:55 PM 53.6 °F - 42.8 °F 67% 30.09 in 10.0 mi Calm Calm - N/A   Clear
9:15 PM 53.6 °F - 42.8 °F 67% 30.10 in 10.0 mi Calm Calm - N/A   Clear
9:35 PM 53.6 °F - 42.8 °F 67% 30.10 in 10.0 mi Calm Calm - N/A   Clear
9:55 PM 51.8 °F - 42.8 °F 71% 30.10 in 10.0 mi Calm Calm - N/A   Clear
10:15 PM 50.0 °F - 41.0 °F 71% 30.10 in 10.0 mi Calm Calm - N/A   Partly Cloudy
10:35 PM 50.0 °F - 42.8 °F 76% 30.10 in 10.0 mi Calm Calm - N/A   Clear
10:55 PM 50.0 °F - 41.0 °F 71% 30.10 in 10.0 mi Calm Calm - N/A   Clear
11:15 PM 48.2 °F - 41.0 °F 76% 30.09 in 10.0 mi Calm Calm - N/A   Clear
11:35 PM 50.0 °F - 41.0 °F 71% 30.10 in 10.0 mi Calm Calm - N/A   Partly Cloudy
11:55 PM 48.2 °F - 42.8 °F 82% 30.10 in 10.0 mi Calm Calm - N/A   Scattered Clouds